DW9572 Weather Reports


time (UTC)temp
F
wind
direction
speed
knots
gust
knots
rain 1hr
in
rain 24hr
in
rain mn
in
humidity
%
barometer
mb
20260903224529 72 203 13.0 20.0 0.00 0.00 0.00 34 1008.1
20260903223005 71 236 12.2 20.0 0.00 0.00 0.00 35 1008.2
20260903221503 71 211 7.0 19.1 0.00 0.00 0.00 37 1008.2
20260903220042 71 204 6.1 14.8 0.00 0.00 0.00 38 1008.2
20260903214541 70 166 2.6 13.0 0.00 0.00 0.00 40 1008.5
20260903213035 70 219 11.3 17.4 0.00 0.00 0.00 38 1008.7
20260903211523 70 215 9.6 17.4 0.00 0.00 0.00 37 1008.8
20260903210020 69 215 9.6 17.4 0.00 0.00 0.00 39 1008.9
20260903204517 68 145 7.0 15.6 0.00 0.00 0.00 39 1009.1
20260903203014 68 153 5.2 13.9 0.00 0.00 0.00 44 1009.3
20260903201613 67 210 7.8 16.5 0.00 0.00 0.00 45 1009.5
20260903200015 67 188 7.0 16.5 0.00 0.00 0.00 44 1009.7
20260903194514 67 221 10.4 16.5 0.00 0.00 0.00 47 1009.7
20260903193017 67 266 8.7 14.8 0.00 0.00 0.00 50 1009.8
20260903191611 66 204 9.6 17.4 0.00 0.00 0.00 53 1009.9
20260903190012 66 197 10.4 16.5 0.00 0.00 0.00 54 1010.1
20260903184508 66 191 13.0 19.1 0.00 0.00 0.00 51 1010.1
20260903183017 66 203 10.4 18.2 0.00 0.00 0.00 52 1010.1
20260903181604 65 245 13.0 15.6 0.00 0.00 0.00 51 1010.1
20260903180043 65 229 13.0 18.2 0.00 0.00 0.00 51 1010.1
20260903174540 63 244 9.6 13.0 0.00 0.00 0.00 57 1010.2
20260903173019 62 207 7.8 14.8 0.00 0.00 0.00 65 1010.2
20260903171519 62 245 10.4 14.8 0.00 0.00 0.00 62 1010.3
20260903170100 61 194 7.0 12.2 0.00 0.00 0.00 66 1010.2
20260903164558 60 252 7.8 13.9 0.00 0.00 0.00 65 1010.3
20260903163056 60 250 12.2 15.6 0.00 0.00 0.00 63 1010.3
20260903161538 60 219 11.3 16.5 0.00 0.00 0.00 65 1010.2
20260903160019 59 252 9.6 12.2 0.00 0.00 0.00 65 1010.1
20260903154516 59 214 6.1 9.6 0.00 0.00 0.00 68 1010.3
20260903153054 58 204 7.0 9.6 0.00 0.00 0.00 69 1010.5
20260903151553 57 207 5.2 8.7 0.00 0.00 0.00 69 1010.5
20260903150035 58 225 4.3 6.1 0.00 0.00 0.00 69 1010.5
20260903144530 56 177 2.6 6.1 0.00 0.00 0.00 71 1010.4
20260903143014 55 187 2.6 4.3 0.00 0.00 0.00 73 1010.3
20260903141513 53 87 0.9 2.6 0.00 0.00 0.00 78 1010.1
20260903140015 52 103 3.5 7.0 0.00 0.00 0.00 78 1009.8
20260903134508 53 110 2.6 5.2 0.00 0.00 0.00 75 1009.7
20260903133003 56 162 4.3 8.7 0.00 0.00 0.00 66 1009.4
20260903131600 56 293 7.0 14.8 0.00 0.00 0.00 67 1009.0
20260903130107 54 276 10.4 14.8 0.00 0.00 0.00 73 1008.9
20260903124606 52 204 5.2 7.0 0.00 0.00 0.00 79 1009.1
20260903123040 51 215 3.5 6.1 0.00 0.00 0.00 81 1009.1
20260903121549 51 257 3.5 5.2 0.00 0.00 0.00 79 1009.1
20260903120022 51 194 0.9 2.6 0.00 0.00 0.00 79 1009.1
20260903114518 52 274 0.0 3.5 0.00 0.00 0.00 77 1009.0
20260903113055 53 309 0.0 0.9 0.00 0.00 0.00 76 1009.0
20260903111551 54 308 0.0 0.9 0.00 0.00 0.00 74 1008.9
20260903110033 54 208 1.7 4.3 0.00 0.00 0.00 75 1008.8
20260903104532 55 342 0.0 3.5 0.00 0.00 0.00 78 1008.6
20260903103020 55 6 0.0 2.6 0.00 0.00 0.00 83 1008.3
20260903101517 55 308 0.9 3.5 0.00 0.00 0.00 83 1008.4
20260903100013 56 281 3.5 4.3 0.00 0.00 0.00 84 1008.1
20260903094512 56 262 2.6 5.2 0.00 0.00 0.00 84 1007.9
20260903093011 57 269 3.5 6.1 0.00 0.00 0.00 85 1007.9
20260903091508 57 246 1.7 5.2 0.00 0.00 0.00 84 1007.9
20260903090006 58 203 2.6 5.2 0.00 0.00 0.00 84 1007.9
20260903084506 58 208 3.5 5.2 0.00 0.00 0.00 85 1007.9
20260903083048 58 204 3.5 5.2 0.00 0.00 0.00 85 1007.8
20260903081547 58 228 1.7 3.5 0.00 0.00 0.00 84 1007.7
20260903080028 58 195 1.7 4.3 0.00 0.00 0.00 84 1007.6
20260903074528 58 173 1.7 5.2 0.00 0.00 0.00 85 1007.5
20260903073029 59 233 7.8 9.6 0.00 0.00 0.00 85 1007.2
20260903071508 59 232 9.6 13.0 0.00 0.00 0.00 85 1006.9
20260903070054 59 257 7.8 12.2 0.00 0.00 0.00 83 1006.8
20260903064550 60 231 8.7 13.0 0.00 0.00 0.00 81 1006.8
20260903063032 60 271 3.5 11.3 0.00 0.00 0.00 79 1007.0
20260903061549 61 258 7.0 16.5 0.00 0.00 0.00 78 1007.0
20260903060013 61 242 11.3 19.1 0.00 0.00 0.00 78 1006.5
20260903054517 60 239 9.6 15.6 0.00 0.00 0.00 81 1006.4
20260903053054 62 241 16.5 25.2 0.00 0.00 0.00 77 1006.3
20260903051553 62 257 19.1 24.3 0.00 0.00 0.00 75 1006.4
20260903050039 63 269 13.9 22.6 0.00 0.00 0.00 74 1006.7
20260903044545 63 262 15.6 21.7 0.00 0.00 0.00 74 1006.5
20260903043040 62 215 13.0 16.5 0.00 0.00 0.00 76 1006.6
20260903041546 62 211 13.9 20.0 0.00 0.00 0.00 76 1006.6
20260903040037 62 205 11.3 15.6 0.00 0.00 0.00 75 1006.8
20260903034536 63 211 5.2 8.7 0.00 0.00 0.00 74 1006.7
20260903033034 64 201 7.0 16.5 0.00 0.00 0.00 69 1006.7
20260903031534 64 191 7.0 17.4 0.00 0.00 0.00 69 1006.7
20260903030017 63 235 8.7 13.0 0.00 0.00 0.00 68 1006.5
20260903024517 64 222 12.2 21.7 0.00 0.00 0.00 66 1006.3
20260903023118 63 250 14.8 20.0 0.00 0.00 0.00 68 1006.2
20260903021559 62 256 10.4 14.8 0.00 0.00 0.00 71 1006.2
20260903020058 63 269 9.6 19.1 0.00 0.00 0.00 69 1006.3
20260903014606 65 271 10.4 17.4 0.00 0.00 0.00 62 1006.3
20260903013059 66 269 15.6 21.7 0.00 0.00 0.00 59 1006.3
20260903011611 66 264 16.5 24.3 0.00 0.00 0.00 58 1006.2
20260903010101 66 273 15.6 20.9 0.00 0.00 0.00 57 1006.0
20260903004544 66 267 19.1 31.3 0.00 0.00 0.00 55 1005.9
20260903003100 67 270 20.9 27.8 0.00 0.00 0.00 54 1005.8
20260903001553 66 263 19.1 25.2 0.00 0.00 0.00 56 1005.9
20260903000046 66 280 12.2 20.9 0.00 0.00 0.00 57 1006.1
20260902234523 68 256 17.4 24.3 0.00 0.00 0.00 49 1005.9
20260902233023 69 277 19.1 30.4 0.00 0.00 0.00 46 1005.9
20260902231504 70 268 19.1 31.3 0.00 0.00 0.00 45 1006.0
20260902230004 69 264 13.9 22.6 0.00 0.00 0.00 50 1006.1